Hlavní strana
METAR-TAF:

METAR-TAF

Letiště :

El Goléa, Alžírsko

zeměpisná šířka: 30-34N, zeměpisná délka: 002-52E, výška: 397 m

Aktuální stav počasí

Zpráva byla vytvořena před 48 minutami, v 02:00 UTC
Východoseverovýchodní vítr 7 kt
Teplota 14°C
Vlhkost vzduchu 41%
Tlak 1016 hPa
Viditelnost 10 km a více
Žádná oblačnost pod 1500 m, nevyskytují se cumulonimby.

METAR: DAUE 040200Z 06007KT CAVOK 14/01 Q1016

Čas: 03:48 (02:48 UTC)


TAF: chybějící

Stav a předpovědi počasí z více než 4 000 letišť (zprávy METAR a TAF).

Červené a žluté tečky na mapě představují dostupné meteorologické stanice.

Když kurzor umístíte na tečku, zobrazí se název stanice.

Pak kliknutím zobrazíte stav a předpověď počasí.

Chcete-li změnit mapu, kliknutím na zelené tlačítko se znaménkem +mapu přiblížíte, kliknutím na zelené tlačítko se znaménkem – mapu oddálíte a kliknutím na zelené šipky přejdete na sousední mapy.


METAR-TAF: